Blattenbach Aussen Messungen

Zurück zum Überblick

Zeitpunkt Temperatur Temperatur Kabelsensor Luftfeuchte
19.11.2018 14:40:24 2,8 C 7,4 C 73,0%
19.11.2018 14:33:24 2,8 C 7,4 C 73,0%
19.11.2018 14:26:21 2,9 C 7,4 C 72,0%
19.11.2018 14:19:25 3,0 C 7,4 C 72,0%
19.11.2018 14:12:23 3,3 C 7,4 C 72,0%
19.11.2018 14:05:25 3,3 C 7,4 C 72,0%
19.11.2018 13:58:26 3,1 C 7,4 C 73,0%
19.11.2018 13:51:21 2,9 C 7,4 C 73,0%
19.11.2018 13:44:25 2,9 C 7,4 C 73,0%
19.11.2018 13:37:26 2,9 C 7,4 C 73,0%
19.11.2018 13:30:25 2,9 C 7,4 C 73,0%
19.11.2018 13:23:24 3,2 C 7,4 C 72,0%
19.11.2018 13:16:26 3,5 C 7,4 C 72,0%
19.11.2018 13:09:24 3,5 C 7,4 C 72,0%
19.11.2018 13:02:23 3,6 C 7,4 C 71,0%
19.11.2018 12:55:22 3,8 C 7,4 C 71,0%
19.11.2018 12:48:22 3,7 C 7,4 C 71,0%
19.11.2018 12:41:22 3,6 C 7,4 C 71,0%
19.11.2018 12:34:26 3,6 C 7,4 C 71,0%
19.11.2018 12:27:25 3,7 C 7,4 C 71,0%
19.11.2018 12:20:23 3,8 C 7,4 C 71,0%
19.11.2018 12:13:22 3,7 C 7,4 C 71,0%
19.11.2018 12:06:24 3,6 C 7,4 C 72,0%
19.11.2018 11:59:22 3,6 C 7,4 C 72,0%
19.11.2018 11:52:24 3,5 C 7,4 C 72,0%
19.11.2018 11:45:23 3,5 C 7,4 C 71,0%
19.11.2018 11:38:23 3,4 C 7,4 C 72,0%
19.11.2018 11:31:22 3,4 C 7,4 C 72,0%
19.11.2018 11:24:24 3,3 C 7,4 C 72,0%
19.11.2018 11:17:23 3,5 C 7,4 C 72,0%
19.11.2018 11:10:21 3,6 C 7,4 C 72,0%
19.11.2018 11:03:10 3,5 C 7,4 C 73,0%
19.11.2018 10:56:08 3,3 C 7,5 C 73,0%
19.11.2018 10:49:10 3,1 C 7,5 C 73,0%
19.11.2018 10:42:08 3,0 C 7,5 C 73,0%
19.11.2018 10:35:09 2,9 C 7,5 C 73,0%
19.11.2018 10:28:09 3,0 C 7,5 C 73,0%
19.11.2018 10:21:08 2,9 C 7,5 C 73,0%
19.11.2018 10:14:08 2,9 C 7,5 C 74,0%
19.11.2018 10:07:08 2,7 C 7,5 C 73,0%
19.11.2018 10:00:10 2,8 C 7,5 C 74,0%
19.11.2018 09:53:09 2,7 C 7,5 C 73,0%
19.11.2018 09:46:10 2,8 C 7,5 C 74,0%
19.11.2018 09:39:09 2,6 C 7,4 C 74,0%
19.11.2018 09:32:10 2,6 C 7,4 C 74,0%
19.11.2018 09:25:10 2,6 C 7,4 C 74,0%
19.11.2018 09:18:09 2,6 C 7,4 C 74,0%
19.11.2018 09:11:11 2,7 C 7,4 C 74,0%
19.11.2018 09:04:09 2,6 C 7,4 C 74,0%
19.11.2018 08:57:10 2,4 C 7,4 C 74,0%